Location: Olsztyn
(53.7767°N, 20.4765°E)
Time: 20:53:16
(UTC+02:00)

Envisat - Pass Details

Date: 29 February 2024
Orbit: 762 x 764 km, 98.3° (Epoch: 21 April)

Event Time Altitude Azimuth Distance (km) Brightness Sun altitude
Rises 01:56:53 0° 24° (NNE) 3,245 7.1 -37.5°
Reaches altitude 10° 01:59:47 10° 41° (NE) 2,313 6.2 -37.2°
Enters shadow 02:03:08 21° 82° (E) 1,696 5.1 -36.9°
